Content
SEND FEEDBACK

Daily
Averages
Monthly
Summary
United States of America

RAPID CITY, SOUTH DAKOTA


Home > North America > United States > South Dakota
Elevation: 3162 feet     Latitude: 44 03N     Longitude: 103 04W

WEATHER
 
SELECT A DAY
Number of Records: 200,504;   Date Range: 1/1/95 - 9/16/14
 
SHARE

PRINT THIS DATA

[ ← Previous Day ]
WEATHER ALMANAC - JUNE 12, 2013
[ Next Day → ]
[ °C ]   °F
Weather ElementAverageHighLow
Temperature58.7 °F66.9 °F (3:52 pm)54 °F (5:52 am)
Dewpoint52.3 °F55.4 °F (4:06 am)51.1 °F (8:52 am)
Humidity80.2 %97 % (5:52 am)57 % (3:52 pm)
Barometer30.06 in30.16 in (12:39 pm)29.87 in (1:52 am)
Wind Speed9.6 mph18.4 mph (8:52 am)
Wind Gust25.3 mph (8:52 am)
Weather ElementAverage
Visibility9.9 mi
Wind DirectionSSW (215.2 °)

Weather ElementTotal
Precipitation---
Heating Degree Days4.6 (Base 65)
Growing Degree Days10.5 (Base 50)
Averaged from 31 records on June 12, 2013
WEATHER CONDITIONS BREAKOUT
WIND DIRECTION BREAKOUT
WEATHER BY HOUR - JUNE 12, 2013
[ °C ]   °F
Local TimeTemperatureDewpointHumidityBarometerVisibilityWind DirectionWind SpeedGust SpeedPrecipitationEventsConditions
12:52 AM57.0 °F55.0 °F93 %29.88 in10.0 miWNW (300°)12.7 mphClear
1:52 AM55.0 °F52.0 °F89 %29.87 in10.0 miNNW (330°)8.1 mphClear
2:52 AM55.0 °F52.0 °F89 %29.87 in10.0 miCalmClear
3:52 AM57.0 °F54.0 °F89 %29.92 in10.0 miNorth (360°)13.8 mph20.7 mphPartly Cloudy
4:06 AM57.2 °F55.4 °F94 %29.97 in10.0 miNorth (350°)13.8 mph23.0 mphMostly Cloudy
4:52 AM55.0 °F54.0 °F96 %29.96 in8.0 miNorth (10°)11.5 mphOvercast
5:52 AM54.0 °F53.1 °F97 %30.00 in10.0 miNorth (10°)8.1 mphOvercast
6:52 AM55.0 °F53.1 °F93 %30.01 in10.0 miNNW (330°)9.2 mphOvercast
7:26 AM55.4 °F51.8 °F88 %30.06 in10.0 miNW (320°)11.5 mphOvercast
7:34 AM55.4 °F51.8 °F88 %30.06 in10.0 miNW (320°)13.8 mphOvercast
7:52 AM55.9 °F52.0 °F87 %30.02 in10.0 miNNW (330°)15.0 mphOvercast
8:07 AM55.4 °F51.8 °F88 %30.06 in10.0 miNNW (340°)16.1 mphOvercast
8:52 AM57.9 °F51.1 °F78 %30.05 in10.0 miNorth (350°)18.4 mph25.3 mphMostly Cloudy
9:07 AM57.2 °F51.8 °F82 %30.10 in10.0 miNorth (350°)16.1 mph24.2 mphMostly Cloudy
9:18 AM57.2 °F51.8 °F82 %30.10 in10.0 miNNW (340°)13.8 mph21.9 mphOvercast
9:52 AM57.0 °F51.1 °F81 %30.10 in10.0 miNorth (360°)15.0 mphOvercast
10:52 AM57.9 °F52.0 °F81 %30.13 in10.0 miNorth (360°)12.7 mph17.3 mphOvercast
11:52 AM62.1 °F53.1 °F72 %30.14 in10.0 miNorth (350°)9.2 mphOvercast
12:39 PM62.6 °F51.8 °F68 %30.16 in10.0 miNorth (350°)11.5 mphMostly Cloudy
12:52 PM64.0 °F53.1 °F67 %30.13 in10.0 miNorth (360°)11.5 mphOvercast
1:52 PM66.0 °F53.1 °F63 %30.13 in10.0 miNNE (30°)8.1 mphMostly Cloudy
2:52 PM64.9 °F51.1 °F61 %30.13 in10.0 miNE (50°)5.8 mphMostly Cloudy
3:52 PM66.9 °F51.1 °F57 %30.12 in10.0 miEast (100°)3.5 mphScattered Clouds
4:52 PM66.9 °F52.0 °F59 %30.11 in10.0 miEast (90°)6.9 mphOvercast
5:52 PM64.9 °F52.0 °F63 %30.10 in10.0 miESE (110°)3.5 mphMostly Cloudy
6:52 PM64.9 °F52.0 °F63 %30.09 in10.0 miESE (120°)9.2 mphPartly Cloudy
7:52 PM61.0 °F53.1 °F75 %30.11 in10.0 miSE (130°)5.8 mphPartly Cloudy
8:52 PM57.9 °F51.1 °F78 %30.12 in10.0 miCalmClear
9:52 PM54.0 °F51.1 °F90 %30.16 in10.0 miEast (80°)4.6 mphClear
10:52 PM54.0 °F51.1 °F90 %30.13 in10.0 miSE (140°)8.1 mphClear
11:52 PM55.9 °F51.1 °F84 %30.16 in10.0 miCalmMostly Cloudy
Hourly data recorded from KRAP, located miles away from Rapid City, South Dakota







STORIES FROM OUR PARTNERS